Location: Unspecified
(35.6961°N, 0.0000°E)
Time: 18:35:56
(UTC+00:00)

A-11 Canister half - Visible Passes

Search period start: 22 May 2019 00:00
Search period end: 01 June 2019 00:00
Orbit: 1517 x 1683 km, 47.2° (Epoch: 22 May)

Date Brightness Start Highest point End Pass type
(mag) Time Alt. Az. Time Alt. Az. Time Alt. Az.
22 May 8.8 01:50:08 10° WNW 01:59:22 68° SW 02:08:52 10° SE visible
22 May 10.0 03:57:32 10° W 04:03:06 17° SW 04:08:46 10° SSW visible
22 May 10.0 21:15:53 10° WNW 21:24:32 41° N 21:33:12 10° ENE visible
22 May 9.6 23:22:10 10° NW 23:31:09 51° NNE 23:40:16 10° E visible
23 May 8.8 01:27:13 10° WNW 01:36:28 72° SW 01:46:00 10° SE visible
23 May 9.9 03:34:15 10° W 03:40:16 19° SW 03:46:24 10° SSW visible
23 May 10.0 20:52:51 10° WNW 21:01:31 42° N 21:10:13 10° ENE visible
23 May 9.6 22:59:14 10° NW 23:08:10 49° NNE 23:17:14 10° E visible
24 May 8.8 01:04:18 10° WNW 01:13:35 76° SW 01:23:07 10° SE visible
24 May 9.9 03:11:02 10° W 03:21:38 15° SSW 03:23:58 10° S visible
24 May 10.0 20:29:49 10° WNW 20:38:31 42° N 20:47:14 10° ENE visible
24 May 9.7 22:36:18 10° WNW 22:45:11 48° NNE 22:54:11 10° E visible
25 May 8.8 00:41:23 10° WNW 00:50:42 80° SW 00:53:06 56° SE visible
25 May 10.2 02:47:52 10° W 03:04:38 - S 02:51:06 18° W visible
25 May 10.0 20:06:47 10° W 20:15:31 43° N 20:24:15 10° ENE visible
25 May 9.7 22:13:22 10° WNW 22:22:12 47° NNE 22:31:08 10° E visible
26 May 8.8 00:18:29 10° WNW 00:27:47 84° SW 00:29:37 63° SE visible
26 May 10.2 02:24:44 10° WNW 02:27:41 18° W 02:27:41 18° W visible
26 May 10.0 19:43:43 10° W 19:52:32 44° NNW 20:01:17 10° ENE visible
26 May 9.8 21:50:24 10° WNW 21:59:13 46° NNE 22:08:06 10° E visible
26 May 8.8 23:55:35 10° NW 00:04:53 88° SW 00:06:40 65° SE visible
27 May 10.2 02:01:37 10° WNW 02:04:45 19° W 02:04:45 19° W visible
27 May 10.0 19:20:41 10° W 19:29:32 45° NNW 19:38:18 10° ENE visible
27 May 9.8 21:27:26 10° WNW 21:36:13 45° NNE 21:45:03 10° E visible
27 May 8.8 23:32:40 10° NW 23:41:59 88° NE 23:43:59 61° ESE visible
28 May 10.2 01:38:33 10° WNW 01:42:06 21° W 01:42:06 21° W visible
28 May 9.8 21:04:28 10° WNW 21:13:13 44° N 21:22:00 10° E visible
28 May 8.8 23:09:46 10° NW 23:19:05 84° NE 23:21:30 56° ESE visible
29 May 10.1 01:15:29 10° WNW 01:19:38 24° W 01:19:38 24° W visible
29 May 9.9 20:41:30 10° WNW 20:50:14 43° N 20:58:57 10° E visible
29 May 8.9 22:46:51 10° NW 22:56:09 80° NNE 22:59:08 50° ESE visible
30 May 9.9 00:52:27 10° WNW 00:57:16 27° W 00:57:16 27° W visible
30 May 9.9 20:18:30 10° WNW 20:27:14 42° N 20:35:56 10° ENE visible
30 May 8.9 22:23:57 10° NW 22:33:14 77° NNE 22:36:51 43° ESE visible
31 May 9.8 00:29:27 10° WNW 00:35:00 31° W 00:35:00 31° W visible
31 May 10.0 19:55:31 10° WNW 20:04:14 42° N 20:12:54 10° ENE visible
31 May 9.0 22:01:03 10° NW 22:10:19 74° NNE 22:14:40 36° ESE visible
